THORAD AGENA D DEB

Satellite information

Favourite Embed

Satellite Type and Status

DEBRISIN ORBIT

Key statistics

Satellite THORAD AGENA D DEB at a glance.

Uptime

20338

Days in orbit

Revolutions

≈ 14.2

Per day

Orbit

SSO

Sun Synchronous Orbit

Inclination

99.9

Latest

Satellite identification and parameters

Extended collection of information and parameters for THORAD AGENA D DEB.

Object identification

Identified? True

Debris? True

Object name: THORAD AGENA D DEB

International designator: 1970-025DA

Object number (NORAD): 4752

Object ID (CCSDS): 4752

Country: UNITED STATES OF AMERICA (US)

Current information (Y/N): Y

RCS size: SMALL

Orbital parameters

Period: 101.709 minutes

Inclination: 99.87 deg

SMA: 7217.724 km

Apoapsis: 854.54 km

Periapsis: 824.638 km

RAAN: 106.9194 deg

Eccentricy: 0.00207146

Argument of periapsis: 238.2163 deg

Mean anomaly: 121.699 deg

Mean motion: 14.15801456 rev/day

Mean motion (dot): 0.00004087 rev/day2

B* drag term: 0.0021017891 1/REarth

Two-line elements (TLE)

Creation date: Dec. 12, 2025, 10:14 a.m.

Reference frame: TEME

Reference center: EARTH

Epoch: Dec. 12, 2025, 6:24 a.m. UTC

TLE line 0: 0 THORAD AGENA D DEB

TLE line 1: 1 04752U 70025DA 25346.26726054 .00004087 00000-0 21018-2 0 9997

TLE line 2: 2 04752 99.8700 106.9194 0020715 238.2163 121.6990 14.15801456807618

Live tracking on map

Real-time ground track for satellite THORAD AGENA D DEB.

In-orbit conjunctions

A list of the most updated potential collisions computed for object THORAD AGENA D DEB.

Target Orbit TCA Probability of collision Miss distance Type
METEOR 1-17 DEB LEO 2025-09-16 23:24:09 0.0001695846 153.0 (m) DEBRIS
METEOR 2-1 LEO 2025-04-24 03:58:19 0.000409661 488.0 (m) PAYLOAD
SL-3 R/B LEO 2025-01-28 02:22:56 0.000212971 9.0 (m) ROCKET BODY

Associated space launch

Meteorological research and development satellite

THORAD AGENA D DEB was lifted into orbit during the mission ‘Thorad SLV-2G Agena D | Nimbus 4’, on board a Thorad SLV-2G Agena D space rocket.

The launch took place on April 8, 1970, 8:17 a.m. from Space Launch Complex 2E.

For more information about the launch, click the button.

Launch to space Thorad SLV-2G Agena D | Nimbus 4
Thorad SLV-2G Agena D | Nimbus 4

Agency: N/A

Status: Launch Successful

Launch date: April 8, 1970, 8:17 a.m. UTC

Rocket: Thorad SLV-2G Agena D

Launch pad: Space Launch Complex 2E

Location: Vandenberg SFB, CA, USA

...

Latest news about this satellite

There are no fresh news available about this satellite. Check back as we update our databases every day.


Newsletter sign-up

Weekly statistics, charts and insights to help you stay on top of the space industry.